{"data":{"norad_id":69844,"intl_designator":"2026-154AB","name":"STARLINK-37584","alt_names":[],"object_type":"PAYLOAD","status":"ACTIVE","operator":null,"country":"US","launch_date":"2026-07-05","launch_site_code":"AFETR","launch_vehicle":null,"mission":null,"orbit_class":"UNKNOWN","rcs_meters":null,"size_class":null,"mass_kg":null,"dimensions":null,"purposes":["comms"],"wikipedia_slug":null,"has_3d_model":false,"image_url":null,"decayed_at":null,"tle_current":{"epoch":"2026-09-20T05:02:41.997120Z","epoch_age_seconds":42807,"freshness":"FRESH","line1":"1 69844U 26154AB  26263.21020830  .00022024  00000+0  66101-3 0  9990","line2":"2 69844  53.1572 333.0498 0001781  90.5782 269.5424 15.34402491 13193","mean_motion":15.34402491,"eccentricity":0.0001781,"inclination_deg":53.1572,"raan_deg":333.0498,"arg_perigee_deg":90.5782,"mean_anomaly_deg":269.5424,"bstar":0.00066101,"rev_number":1319,"period_min":93.847605725765,"perigee_km":461.477484112,"apogee_km":463.91418876834,"semimajor_km":6840.8328364402,"source":"CELESTRAK","updated_at":"2026-09-20T09:00:44.297747Z"}}}